map of VAA home
Great Circle Mapper logo
VAA - Airport
Location
City:  Vaasa, Finland
ICAO / IATA:EFVA / VAA

Details
Type:Airport (Aerodrome, Airfield)
Use:Public/Civil, International (customs port of entry)
Latitude:6303'02"N (63.050650)
Longitude:2145'44"E (21.762175)
Datum:WGS 1984
Elevation:19 ft (6 m)
Variation:7.96E (WMM2015 magnetic declination)
0.17 annual change
Runways:1
Longest:8727 × 157 ft (2660 × 48 m), paved

Time
Time Zone:UTC+2 (DST+3)
Local Time:

Weather
METAR:EFVA 040220Z AUTO 02005KT 6000 -SN SCT004/// OVC012/// 00/00 Q1000 R16/19//95
TAF:EFVA 040230Z 0403/0503 01005KT 9999 -RASN SCT004 BKN025
TEMPO 0403/0408 1200 -SN BKN004
TEMPO 0408/0415 -SHRASN BKN008
TEMPO 0415/0503 4000 -RASN BKN004

Related Locations
Nearby:
Farthest:NZWD: 11166 mi / 17971 km
McMurdo Station [Williams Field], Ross Island, AQ

Find:

   beyond  
but within

Other Information
Maps:
NOTAMs:
Links:
Sources:

  
flag of Finland   

Sectional Chart

Flight Planning
at skyvector.com

Satellite Image

Google Maps Satellite View

 

Copyright © 2004-2015 Karl L. Swartz. All rights reserved.
The Great Circle Mapper name and logo are trademarks of the Great Circle Mapper.
All other trademarks mentioned herein belong to their respective owners.
Please see credits for attibutions and further copyright information.

  Follow gcmap on Facebook Follow gcmap on Twitter Follow gcmap on Google+

hCard Microformat

Geo Microformat